Location: Newark
(31.5350°N, 35.0986°E)
Time: 16:47:58
(UTC+00:00)

A-11 Canister half - Pass Details

Date: 29 October 2019
Orbit: 1514 x 1686 km, 47.2° (Epoch: 12 November)

Event Time Altitude Azimuth Distance (km) Brightness Sun altitude
Exits shadow 02:38:59 11° 313° (NW) 3,760 10.6 -16.3°
Maximum altitude 02:48:12 54° 29° (NNE) 1,860 9.6 -14.3°
Drops below altitude 10° 02:57:19 10° 105° (ESE) 3,704 12.5 -12.4°
Sets 03:00:26 0° 110° (ESE) 4,671 13.4 -11.7°
